Wind_Speed
35 31 24 29 45 42 45 38 35 39 39 39 39 33 33 32 28 25 26 25 24 24 24 25 27 26 25 24 23 26 28 28
39 36 33 29 23 39 46 41 35 38 44 41 40 39 38 36 31 29 28 26 26 25 26 27 28 27 26 23 22 28 30 29
44 44 36 35 33 29 40 47 41 40 44 45 45 45 41 36 32 30 28 26 26 25 25 27 26 27 26 25 25 28 29 29
43 38 37 36 40 35 35 41 45 43 41 48 44 44 37 31 32 30 28 28 24 25 24 24 24 24 25 26 27 29 28 29
3 14 27 30 27 32 37 36 44 45 46 49 47 48 40 38 36 32 28 26 26 25 26 24 24 25 24 24 26 28 28 29
17 11 1 8 20 32 30 31 43 47 47 48 49 45 38 35 33 29 25 25 27 25 26 26 25 25 26 28 30 32 32 31
20 16 10 8 3 12 21 33 42 47 48 51 46 43 38 35 31 28 26 22 25 27 24 27 28 29 31 32 35 35 33 32
23 24 18 15 7 5 25 33 41 45 48 45 44 40 36 33 30 29 25 23 24 23 21 25 30 31 33 35 33 34 34 33
24 22 21 17 14 1 22 30 33 36 41 42 37 34 34 30 27 26 23 21 19 17 21 26 26 27 28 28 28 33 36 37
19 22 20 19 21 8 15 29 31 34 38 34 31 28 27 26 23 20 19 16 17 18 21 26 30 26 27 29 28 30 35 34
25 23 23 20 20 19 12 18 26 31 34 31 31 26 24 23 20 21 18 16 22 23 21 21 19 19 21 25 29 33 36 39
24 24 24 22 19 18 12 12 17 20 20 28 24 25 23 20 20 21 18 18 20 20 19 17 17 18 15 16 21 23 23 39
28 26 25 23 21 18 12 12 8 14 13 20 15 21 19 20 21 19 15 14 15 14 12 11 13 15 13 15 18 17 17 28
30 29 28 26 24 19 10 4 3 10 22 24 26 25 22 21 17 13 11 13 13 11 10 12 13 11 11 10 11 10 11 18
30 31 29 25 22 20 15 6 8 8 16 24 27 25 24 23 19 17 17 15 14 11 10 11 10 9 9 7 6 8 6 16
27 29 28 26 22 19 16 11 8 17 25 28 29 25 22 21 20 19 18 17 14 13 12 12 12 11 11 10 9 9 13 15
23 26 27 27 25 21 18 14 8 13 23 30 24 25 21 20 19 19 19 17 16 14 14 13 13 12 11 9 11 15 15 13
23 25 26 25 23 20 19 16 11 7 16 19 26 26 25 22 21 21 15 20 20 20 16 14 14 13 12 12 12 13 16 16
21 22 24 23 21 19 17 16 14 10 12 12 17 22 24 24 24 21 25 27 24 21 20 18 18 16 14 14 14 15 16 17
Wind_Direction
278 275 280 256 247 242 243 237 233 226 229 227 217 222 226 222 224 227 225 224 224 220 220 222 225 228 228 229 226 209 213 213
281 278 275 264 260 246 239 236 225 220 224 224 218 217 222 221 227 228 222 220 220 222 219 219 224 225 226 224 220 216 218 220
278 274 271 268 257 256 248 236 226 219 222 224 225 217 218 225 222 220 218 217 220 219 216 215 219 220 220 223 217 213 219 218
275 263 263 257 256 250 256 240 231 221 221 220 221 225 220 214 216 216 216 215 215 218 219 218 219 220 222 217 215 214 218 216
263 238 245 253 257 253 255 248 230 221 218 216 221 222 210 216 217 212 212 212 215 219 222 220 219 222 226 224 222 222 221 221
10 34 337 260 259 251 247 235 219 215 216 215 219 216 216 220 211 211 217 218 218 215 216 216 217 227 230 230 231 227 231 227
356 355 8 20 302 240 221 223 216 214 214 214 215 216 217 215 208 214 211 218 216 215 221 216 220 230 235 236 236 237 234 233
355 353 357 9 19 219 201 212 212 213 213 214 213 218 221 217 211 211 209 211 212 211 213 222 228 233 241 244 240 240 236 234
1 359 5 9 11 144 204 203 213 220 211 214 218 216 219 217 212 211 212 213 219 210 214 227 226 235 234 240 240 242 239 231
6 11 13 14 28 52 188 207 216 215 214 219 217 220 212 210 206 207 208 214 218 212 226 234 236 239 239 242 243 240 229 246
15 13 14 18 28 49 140 193 213 222 218 220 220 214 203 210 208 205 203 214 220 220 231 224 222 233 244 243 238 237 237 233
13 14 17 18 27 42 76 162 194 212 212 214 215 208 202 211 208 202 208 221 230 210 211 225 229 242 254 244 235 234 249 217
18 15 19 19 24 32 36 66 184 199 242 251 210 213 207 205 204 202 203 227 214 187 207 224 231 237 245 234 227 231 236 235
18 18 19 23 21 30 34 53 143 196 221 217 214 208 210 202 189 191 192 197 197 198 216 241 236 232 235 226 225 234 248 244
17 18 19 23 24 20 31 57 177 197 188 200 196 189 188 180 180 192 185 195 191 195 212 228 223 222 221 218 221 238 249 231
17 17 19 21 25 22 29 33 105 157 164 176 171 172 172 178 183 191 193 198 198 205 210 222 220 219 223 217 211 213 199 175
20 21 24 24 25 26 27 29 52 124 141 157 155 164 172 177 183 192 198 198 199 207 211 218 222 221 213 205 212 210 206 202
30 30 29 28 30 30 36 37 29 74 129 139 153 166 173 179 184 194 189 199 204 206 209 211 214 227 223 217 213 210 210 206
37 39 40 39 44 46 51 57 53 59 82 107 141 153 161 165 169 176 194 195 188 191 194 207 222 224 225 216 216 218 213 208
Height
1414 1413 1412 1411 1416 1419 1421 1426 1430 1435 1440 1444 1448 1452 1453 1455 1460 1463 1466 1468 1470 1474 1476 1478 1481 1484 1487 1490 1493 1497 1500 1504
1405 1406 1407 1408 1407 1411 1411 1416 1421 1425 1430 1436 1443 1444 1445 1449 1454 1459 1461 1463 1465 1468 1471 1474 1476 1479 1483 1486 1490 1494 1497 1501
1397 1397 1400 1399 1401 1402 1404 1407 1411 1417 1422 1429 1436 1437 1439 1444 1449 1452 1455 1457 1460 1463 1466 1469 1473 1476 1479 1482 1485 1489 1492 1496
1386 1388 1390 1391 1392 1395 1395 1399 1403 1408 1414 1421 1428 1433 1438 1441 1443 1446 1448 1453 1456 1460 1462 1465 1469 1472 1474 1477 1480 1484 1487 1490
1383 1379 1381 1383 1383 1384 1388 1390 1393 1399 1405 1412 1419 1423 1426 1429 1433 1439 1443 1448 1452 1455 1459 1461 1466 1469 1471 1473 1477 1479 1482 1484
1385 1377 1376 1376 1375 1377 1380 1383 1387 1391 1397 1404 1410 1417 1421 1424 1429 1434 1439 1443 1448 1451 1455 1457 1462 1465 1467 1469 1471 1473 1476 1479
1387 1381 1376 1374 1372 1372 1375 1378 1381 1385 1389 1396 1404 1412 1416 1419 1424 1429 1433 1438 1442 1446 1451 1454 1458 1461 1463 1465 1467 1469 1471 1473
1385 1379 1373 1371 1369 1369 1370 1376 1380 1381 1387 1396 1400 1406 1411 1415 1418 1423 1428 1433 1437 1440 1445 1450 1454 1457 1458 1460 1461 1463 1464 1467
1382 1384 1377 1372 1368 1366 1368 1373 1378 1384 1386 1392 1400 1406 1409 1413 1415 1418 1423 1427 1434 1438 1442 1447 1450 1451 1453 1455 1456 1457 1457 1461
1395 1384 1380 1375 1370 1366 1366 1372 1380 1381 1386 1393 1398 1402 1406 1410 1412 1416 1421 1426 1431 1432 1438 1442 1445 1446 1448 1449 1450 1451 1451 1453
1389 1384 1380 1376 1373 1370 1368 1373 1380 1383 1387 1390 1393 1396 1403 1408 1410 1414 1418 1423 1428 1428 1434 1438 1440 1442 1444 1443 1443 1444 1444 1445
1394 1386 1380 1377 1374 1371 1371 1372 1375 1379 1384 1383 1392 1394 1399 1404 1408 1413 1417 1421 1425 1424 1431 1436 1437 1439 1438 1437 1437 1438 1438 1436
1393 1387 1381 1377 1375 1373 1373 1374 1374 1377 1380 1380 1389 1395 1398 1403 1407 1413 1415 1419 1423 1424 1429 1433 1435 1435 1435 1434 1435 1435 1435 1435
1395 1389 1383 1380 1378 1377 1377 1378 1380 1381 1382 1386 1390 1394 1397 1403 1407 1411 1414 1418 1422 1424 1428 1431 1432 1432 1432 1433 1433 1433 1432 1432
1399 1394 1389 1385 1383 1382 1381 1381 1381 1382 1383 1386 1389 1393 1398 1400 1406 1411 1413 1418 1420 1423 1426 1429 1430 1431 1432 1432 1432 1432 1431 1432
1405 1401 1395 1391 1387 1385 1384 1383 1381 1381 1383 1385 1389 1392 1396 1399 1403 1409 1413 1416 1418 1422 1425 1428 1429 1430 1430 1431 1431 1432 1432 1433
1413 1408 1401 1396 1392 1389 1387 1385 1384 1380 1379 1382 1385 1389 1394 1397 1402 1407 1411 1413 1416 1420 1424 1426 1427 1428 1430 1430 1431 1431 1432 1433
1418 1414 1408 1403 1398 1395 1392 1389 1388 1384 1382 1382 1384 1387 1392 1396 1400 1405 1404 1410 1415 1418 1421 1423 1425 1427 1428 1430 1430 1431 1431 1433
1422 1419 1415 1411 1406 1401 1398 1395 1393 1392 1388 1387 1386 1387 1390 1394 1396 1399 1403 1408 1411 1414 1417 1420 1422 1424 1426 1427 1429 1430 1430 1432